STARLINK-32466, 61859

Orbit data source: Space-Track

STARLINK-32466, 61859 is a payload satellite owned by SpaceX/Seattle (US) in LEO that was launched on Thu, 07 Nov 2024 UTC via an FALCON 9 launch vehicle from the Air Force Eastern Test Range (AFETR). Payload-class satellites include a variety of spacecraft equipped with specific instruments for various scientific and technological missions. These include communications satellites like Starlink; space stations such as the ISS; scientific satellites like the Hubble; Earth observation satellites from companies like Planet Labs, Umbra, and HawkEye 360; GPS; miniature CubeSats for education and research; and military/defense satellites.

Loading next visibility...
Identifier
61859, 2024-202Q
Orbit
LEO
Country
Flag of USUS
Related business
Manufacturer
SpaceX/Seattle
Mission
Operational spacecraft
Bus & Motor
STARLINK V2M, Unknown motor
Mass
730 kg wet, ~700 kg dry
Launch date (UTC)
2024-11-07 (1 year ago)
Launch vehicle
FALCON 9
Launch site
Air Force Eastern Test Range (AFETR)
Object type
Payload
Rocket body
Debris
Shape & HBR
Unknown shape, 17.7 m
Radar Cross Section
Large (>1 m²)

Expand to show TLE details & history
Last TLE update: 11 hours ago

TLE from 11 hours ago
0 STARLINK-32466
1 61859U 24202Q   26035.12130325 -.00004295  00000-0 -14658-3 0  9991
2 61859  42.9981  67.5789 0000349 294.7688  65.3127 15.27593121 70205
Epoch: 2026-02-04T02:54Z
TLE epoch observation values (Epoch: 2026-02-04T02:54:40.600Z)
Latitude
-0.00005°
Longitude
-110.38275°
Altitude
482.685 km
Speed
7.626 km/s
True Right ascension
04h 30m 18s
True Declination
0° 00' 00"
Sunlit
Object was in daylight at epoch
Visualization orbit readout
Latitude
Unknown
Longitude
Unknown
Altitude
Unknown
Speed
Unknown
Apparent Right ascension
Unknown
Apparent Declination
Unknown
Sunlit
N/A
Visualization observer readout
Local Sidereal Time
15:53:12
Azimuth
Unknown
Elevation
Unknown
Doppler factor
Unknown
Orbital elements
Apogee altitude
485.195 km
Perigee altitude
484.716 km
Semi-major axis
6,863.092 km
Eccentricity
0.00003
Inclination
42.9981°
RAAN
67.5789°
Arg. of periapsis
294.7688°
True anomaly
65.31633°
Mean anomaly
65.3127°
Eccentric anomaly
65.31452°
Mean motion
3.81736 °/min
Orbital period
94.31 mins
BSTAR
-0.00014658
Loading maneuver chart data...
Computing Atmospheric mass density...
Loading historical data...
Loading historical data...
Loading historical data...
Loading historical data...
Loading historical data...
Loading historical data...
Loading historical data...

Documentation

Showing up to 5 results
|